Weather reports worldwide

Advertisment
Bastia, France (7790): temperature & dewpoint: 20.03.2019 08:00:00 - 26.03.2019 08:00:00 (CET)Bastia, France (7790): temperature 5cm: 20.03.2019 08:00:00 - 26.03.2019 08:00:00 (CET)Bastia, France (7790): temperature -20cm & temperature -100cm: 20.03.2019 08:00:00 - 26.03.2019 08:00:00 (CET)Bastia, France (7790): wind speed & gusts: 20.03.2019 08:00:00 - 26.03.2019 08:00:00 (CET)Bastia, France (7790): wind direction: 20.03.2019 08:00:00 - 26.03.2019 08:00:00 (CET)Bastia, France (7790): reduced air pressure: 20.03.2019 08:00:00 - 26.03.2019 08:00:00 (CET)Bastia, France (7790): visibility: 20.03.2019 08:00:00 - 26.03.2019 08:00:00 (CET)Bastia, France (7790): sunshine duration: 20.03.2019 08:00:00 - 26.03.2019 08:00:00 (CET)Bastia, France (7790): precipitation: 20.03.2019 08:00:00 - 26.03.2019 08:00:00 (CET)
Date & Time tt [°C] td [°C] tt 5cm [°C] tt -20cm [°C] tt -100cm [°C] ff [km/h] ff [kn] fx [km/h] fx [kn] dd ppp [hPa] vv [km] sd [min] rr [mm]
26.03.2019 08:00:00 - - - - - - - - - - - - - -
26.03.2019 07:00:00 7,0 4,8 6,2 13,0 12,7 50 27 81 44 N 1015,8 4,7 0 4,2
26.03.2019 06:00:00 8,1 6,4 7,5 13,0 12,7 44 24 69 37 N 1014,1 8 0 4,3
26.03.2019 05:00:00 9,3 6,9 7,9 13,0 12,7 44 24 66 36 N 1012,2 8 0 4,0
26.03.2019 04:00:00 12,8 9,1 9,2 13,0 12,7 15 8 35 19 N 1009,9 17 0 0,0
26.03.2019 03:00:00 13,0 7,2 11,4 13,0 12,6 11 6 21 11 NW 1009,7 20 0 0,0
26.03.2019 02:00:00 12,9 8,6 11,4 13,1 12,7 9 5 23 12 NW 1010,1 20 0 0,0
26.03.2019 01:00:00 13,1 9,5 10,2 13,1 12,7 17 9 34 19 NNW 1010,2 20 0 0,0
26.03.2019 00:00:00 12,0 9,4 5,6 13,1 12,7 13 7 20 11 WNW 1010,0 20 0 0,0
25.03.2019 23:00:00 9,0 6,4 3,4 13,0 12,7 8 5 13 7 W 1009,7 20 0 0,0
25.03.2019 22:00:00 8,8 6,6 3,0 13,0 12,7 7 4 10 5 SW 1009,2 19 0 0,0
25.03.2019 21:00:00 9,8 7,4 4,8 12,9 12,7 6 3 11 6 W 1009,4 19 0 0,0
25.03.2019 20:00:00 10,9 10,1 3,7 12,9 12,7 8 4 11 6 WSW 1009,5 4,3 0 0,0
25.03.2019 19:00:00 11,0 9,6 5,5 12,7 12,7 6 3 8 4 ESE 1009,6 4,6 7 0,0
25.03.2019 18:00:00 13,0 10,7 12,4 12,6 12,7 6 3 13 7 ENE 1010,0 13 60 0,0
25.03.2019 17:00:00 14,8 11,2 17,9 12,6 12,7 7 4 17 9 E 1010,8 15 60 0,0
25.03.2019 16:00:00 16,6 10,4 27,8 12,5 12,6 6 3 18 10 ENE 1011,5 20 60 0,0
25.03.2019 15:00:00 16,7 11,6 33,7 12,4 12,6 11 6 22 12 E 1012,1 36 60 0,0
25.03.2019 14:00:00 17,0 12,1 34,5 12,4 12,7 10 5 22 12 E 1013,0 19 60 0,0
25.03.2019 13:00:00 17,6 10,2 31,3 12,4 12,6 10 6 23 12 E 1014,1 27 60 0,0
25.03.2019 12:00:00 17,0 9,4 28,9 12,4 12,6 14 8 25 13 ESE 1015,2 28 60 0,0
25.03.2019 11:00:00 16,8 9,5 24,2 12,5 12,7 15 8 24 13 ESE 1016,0 29 60 0,0
25.03.2019 10:00:00 16,4 9,3 16,5 12,5 12,6 14 8 23 12 SE 1016,1 29 60 0,0
25.03.2019 09:00:00 15,6 8,1 10,2 12,6 12,6 2 1 7 4 NNE 1016,8 37 60 0,0
25.03.2019 08:00:00 11,0 5,7 3,5 12,6 12,6 5 3 8 5 SSW 1017,2 39 60 0,0
25.03.2019 07:00:00 7,9 4,1 1,1 12,7 12,6 5 3 14 7 SW 1017,4 44 22 0,0
25.03.2019 06:00:00 7,7 3,9 1,0 12,8 12,6 6 4 16 9 SW 1017,2 42 0 0,0
25.03.2019 05:00:00 7,7 4,1 1,3 12,8 12,6 10 6 16 8 SSW 1017,3 44 0 0,0
25.03.2019 04:00:00 8,0 4,4 1,1 12,9 12,6 7 4 13 7 WSW 1018,1 45 0 0,0
25.03.2019 03:00:00 7,4 3,8 1,4 12,9 12,6 9 5 15 8 SW 1018,6 42 0 0,0
25.03.2019 02:00:00 8,0 5,1 0,9 12,9 12,6 8 4 10 5 SW 1019,1 27 0 0,0
25.03.2019 01:00:00 9,0 5,0 1,4 12,9 12,6 5 3 10 6 SW 1019,2 30 0 0,0
25.03.2019 00:00:00 9,7 4,9 1,9 12,9 12,6 7 4 14 8 SSW 1019,6 20 0 0,0
24.03.2019 23:00:00 9,5 5,5 2,0 12,9 12,6 4 2 10 5 S 1020,1 20 0 0,0
24.03.2019 22:00:00 10,6 5,1 2,8 12,9 12,6 5 3 10 6 WSW 1020,3 20 0 0,0
24.03.2019 21:00:00 10,8 5,7 2,9 12,8 12,6 3 2 7 4 WSW 1020,5 15 0 0,0
24.03.2019 20:00:00 11,9 6,0 3,9 12,7 12,6 3 2 6 3 NNW 1020,4 20 0 0,0
24.03.2019 19:00:00 14,0 8,0 5,9 12,6 12,6 2 1 7 4 S 1020,2 20 7 0,0
24.03.2019 18:00:00 17,0 7,9 12,9 12,5 12,6 5 3 10 5 ESE 1020,1 35 60 0,0
24.03.2019 17:00:00 18,8 5,3 19,8 12,4 12,6 7 4 12 7 ESE 1020,3 51 60 0,0
24.03.2019 16:00:00 19,7 3,8 31,1 12,3 12,6 8 4 16 9 E 1020,5 19 60 0,0
24.03.2019 15:00:00 19,5 7,2 35,6 12,3 12,6 10 5 18 10 E 1021,0 20 60 0,0
24.03.2019 14:00:00 19,8 6,2 37,3 12,2 12,6 13 7 19 11 E 1021,6 49 60 0,0
24.03.2019 13:00:00 20,1 4,9 34,0 12,2 12,6 10 6 18 10 E 1022,4 17 60 0,0
24.03.2019 12:00:00 19,7 5,3 32,2 12,3 12,6 11 6 22 12 E 1022,9 52 60 0,0
24.03.2019 11:00:00 20,4 1,8 27,7 12,3 12,6 13 7 18 10 ENE 1022,9 20 60 0,0
24.03.2019 10:00:00 20,1 0,0 19,3 12,4 12,6 5 3 11 6 SSE 1023,0 45 60 0,0
24.03.2019 09:00:00 17,3 0,4 13,1 12,4 12,6 7 4 13 7 SSW 1023,0 48 60 0,0
24.03.2019 08:00:00 14,3 -1,4 6,0 12,5 12,6 10 6 19 10 SSW 1022,8 55 60 0,0
24.03.2019 07:00:00 10,2 -2,2 1,4 12,5 12,6 10 6 16 9 SW 1022,6 60 21 0,0
24.03.2019 06:00:00 9,2 -1,5 1,8 12,6 12,6 7 4 23 12 SW 1022,4 20 0 0,0
24.03.2019 05:00:00 11,6 -3,4 3,9 12,6 12,6 18 10 27 15 SW 1022,0 20 0 0,0
24.03.2019 04:00:00 9,4 -1,7 1,4 12,7 12,6 11 6 16 9 SSW 1022,3 20 0 0,0
24.03.2019 03:00:00 6,6 -0,2 -0,2 12,7 12,6 10 6 13 7 SSW 1022,5 20 0 0,0
24.03.2019 02:00:00 8,6 -0,5 0,3 12,8 12,6 7 4 13 7 SW 1022,8 20 0 0,0
24.03.2019 01:00:00 8,5 0,5 0,2 12,8 12,6 9 5 13 7 SW 1022,9 20 0 0,0
24.03.2019 00:00:00 8,9 0,6 0,6 12,8 12,6 7 4 12 7 SW 1023,0 20 0 0,0
23.03.2019 23:00:00 9,5 0,6 0,9 12,8 12,6 9 5 12 6 SW 1023,1 20 0 0,0
23.03.2019 22:00:00 9,1 1,7 1,4 12,7 12,6 3 2 10 5 SSW 1023,2 20 0 0,0
23.03.2019 21:00:00 10,5 1,3 2,0 12,6 12,6 6 3 13 7 WNW 1022,9 20 0 0,0
23.03.2019 20:00:00 11,1 2,4 3,1 12,6 12,6 9 5 11 6 SSW 1022,6 20 0 0,0
23.03.2019 19:00:00 14,3 2,2 4,5 12,5 12,6 5 3 9 5 WSW 1022,0 20 7 0,0
23.03.2019 18:00:00 17,1 2,3 12,4 12,4 12,6 6 3 13 7 ENE 1021,9 43 60 0,0
23.03.2019 17:00:00 18,8 1,7 19,5 12,3 12,6 8 4 17 9 N 1022,0 49 60 0,0
23.03.2019 16:00:00 19,2 0,7 29,7 12,2 12,6 9 5 18 10 N 1022,2 32 60 0,0
23.03.2019 15:00:00 19,3 4,2 34,4 12,2 12,6 13 7 31 17 NNE 1022,7 48 60 0,0
23.03.2019 14:00:00 20,2 1,1 35,4 12,2 12,6 10 5 23 12 NNE 1023,1 20 60 0,0
23.03.2019 13:00:00 20,2 1,1 29,9 12,2 12,6 11 6 22 12 N 1023,7 20 60 0,0
23.03.2019 12:00:00 19,5 3,6 26,8 12,2 12,6 14 7 28 15 N 1023,8 42 60 0,0
23.03.2019 11:00:00 18,3 3,0 23,8 12,3 12,6 16 9 24 13 N 1024,0 46 60 0,0
23.03.2019 10:00:00 17,7 2,4 17,5 12,3 12,6 16 9 23 12 N 1024,3 47 60 0,0
23.03.2019 09:00:00 16,9 1,3 11,4 12,4 12,6 12 7 19 11 NNW 1024,3 41 60 0,0
23.03.2019 08:00:00 12,9 4,1 4,8 12,4 12,6 8 4 14 8 WSW 1024,3 49 60 0,0
23.03.2019 07:00:00 8,0 2,2 1,2 12,4 12,6 9 5 15 8 SW 1024,2 60 8 0,0
23.03.2019 06:00:00 7,8 1,6 1,7 12,5 12,5 3 2 16 9 WSW 1024,0 20 0 0,0
23.03.2019 05:00:00 7,9 2,4 1,7 12,6 12,6 10 6 14 8 SW 1023,8 20 0 0,0
23.03.2019 04:00:00 10,0 2,1 3,3 12,6 12,6 9 5 15 8 SW 1023,9 20 0 0,0
23.03.2019 03:00:00 7,6 2,5 3,2 12,6 12,6 10 5 15 8 SW 1023,9 20 0 0,0
23.03.2019 02:00:00 8,6 2,6 2,3 12,7 12,6 10 6 14 8 SW 1024,5 20 0 0,0
23.03.2019 01:00:00 8,4 2,8 2,5 12,6 12,5 9 5 14 7 SW 1024,8 20 0 0,0
23.03.2019 00:00:00 8,3 2,9 1,8 12,7 12,5 9 5 15 8 SW 1024,7 20 0 0,0
22.03.2019 23:00:00 9,1 3,3 1,3 12,6 12,5 8 5 11 6 SW 1025,3 20 0 0,0
22.03.2019 22:00:00 9,6 3,3 1,6 12,6 12,6 8 4 11 6 WSW 1025,7 20 0 0,0
22.03.2019 21:00:00 9,4 3,6 2,0 12,6 12,5 6 3 11 6 SW 1025,5 20 0 0,0
22.03.2019 20:00:00 11,6 4,3 2,9 12,5 12,6 5 3 8 5 W 1025,2 20 0 0,0
22.03.2019 19:00:00 13,2 5,1 5,3 12,4 12,5 5 3 21 11 W 1025,0 20 5 0,0
22.03.2019 18:00:00 15,3 5,2 11,6 12,3 12,5 6 3 11 6 NNW 1024,9 20 60 0,0
22.03.2019 17:00:00 16,9 4,9 17,7 12,2 12,5 9 5 16 9 NNE 1025,2 48 60 0,0
22.03.2019 16:00:00 17,6 3,8 28,0 12,2 12,5 11 6 23 12 NNE 1025,5 36 60 0,0
22.03.2019 15:00:00 17,8 4,7 32,6 12,1 12,5 11 6 31 17 N 1026,0 45 60 0,0
22.03.2019 14:00:00 17,7 5,6 32,5 12,1 12,5 12 7 24 13 N 1026,5 50 60 0,0
22.03.2019 13:00:00 17,0 6,5 28,3 12,1 12,5 14 7 26 14 N 1027,2 53 60 0,0
22.03.2019 12:00:00 16,8 6,0 25,1 12,2 12,5 18 10 27 15 N 1027,3 55 60 0,0
22.03.2019 11:00:00 16,2 6,6 21,7 12,2 12,5 20 11 29 16 N 1027,4 59 60 0,0
22.03.2019 10:00:00 16,0 7,5 16,5 12,2 12,5 17 9 24 13 N 1027,6 60 60 0,0
22.03.2019 09:00:00 14,6 6,9 9,6 12,3 12,5 12 6 19 11 NNW 1027,5 60 60 0,0
22.03.2019 08:00:00 10,0 4,1 4,0 12,3 12,5 6 3 12 6 SW 1027,4 53 60 0,0
22.03.2019 07:00:00 6,4 2,7 2,5 12,4 12,5 8 4 14 8 SW 1026,8 20 17 0,0
22.03.2019 06:00:00 5,7 2,0 1,9 12,4 12,5 9 5 14 8 SW 1026,9 20 0 0,0
22.03.2019 05:00:00 5,8 2,3 2,5 12,4 12,5 8 4 14 7 WSW 1026,6 20 0 0,0
22.03.2019 04:00:00 6,8 2,5 3,3 12,5 12,5 10 5 13 7 WSW 1026,7 48 0 0,0
22.03.2019 03:00:00 6,4 2,3 3,2 12,5 12,5 9 5 14 8 SW 1026,8 52 0 0,0
22.03.2019 02:00:00 7,4 2,5 3,3 12,5 12,5 11 6 15 8 WSW 1026,9 50 0 0,0
22.03.2019 01:00:00 8,0 2,4 2,1 12,6 12,5 10 6 13 7 WSW 1026,9 50 0 0,0
22.03.2019 00:00:00 8,4 2,6 2,4 12,6 12,6 6 4 11 6 WSW 1026,9 54 0 0,0
21.03.2019 23:00:00 9,2 2,5 4,1 12,5 12,5 8 5 16 9 WSW 1027,0 20 0 0,0
21.03.2019 22:00:00 9,6 2,9 3,5 12,5 12,5 10 5 14 7 SW 1026,9 20 0 0,0
21.03.2019 21:00:00 9,6 2,9 3,6 12,5 12,5 10 5 14 7 SW 1026,8 20 0 0,0
21.03.2019 20:00:00 11,0 3,3 4,1 12,4 12,5 7 4 12 6 WSW 1026,7 20 0 0,0
21.03.2019 19:00:00 13,2 3,0 4,8 12,3 12,5 8 4 10 6 W 1026,4 20 4 0,0
21.03.2019 18:00:00 15,6 2,7 11,4 12,3 12,5 8 4 17 9 WSW 1025,9 49 60 0,0
21.03.2019 17:00:00 15,6 2,7 16,3 12,2 12,5 11 6 23 12 NW 1026,0 45 60 0,0
21.03.2019 16:00:00 15,7 3,5 24,0 12,2 12,5 16 8 27 15 N 1026,1 37 60 0,0
21.03.2019 15:00:00 15,1 4,2 26,6 12,1 12,5 18 10 32 17 N 1026,7 20 60 0,0
21.03.2019 14:00:00 14,9 4,6 27,1 12,1 12,5 17 9 31 17 NNW 1027,1 20 60 0,0
21.03.2019 13:00:00 15,2 4,5 26,4 12,1 12,5 21 11 37 20 N 1027,9 31 60 0,0
21.03.2019 12:00:00 14,7 3,8 20,9 12,1 12,5 23 13 36 20 N 1028,3 33 60 0,0
21.03.2019 11:00:00 13,5 3,8 17,2 12,2 12,5 20 11 37 20 N 1028,5 37 45 0,0
21.03.2019 10:00:00 13,4 3,7 14,5 12,2 12,5 18 10 36 19 N 1028,5 38 60 0,0
21.03.2019 09:00:00 12,5 3,4 10,9 12,3 12,5 20 11 31 17 N 1028,3 20 60 0,0
21.03.2019 08:00:00 11,5 3,5 6,4 12,3 12,5 15 8 28 15 N 1027,8 19 60 0,0
21.03.2019 07:00:00 9,4 3,1 0,6 12,4 12,5 15 8 25 13 N 1027,5 50 15 0,0
21.03.2019 06:00:00 3,9 0,8 1,1 12,4 12,5 8 4 13 7 SW 1027,2 20 0 0,0
21.03.2019 05:00:00 5,5 0,1 1,4 12,5 12,5 5 3 18 10 W 1027,1 20 0 0,0
21.03.2019 04:00:00 8,8 0,2 1,0 12,5 12,5 14 8 33 18 NNW 1027,1 20 0 0,0
21.03.2019 03:00:00 4,9 0,3 1,0 12,5 12,5 7 4 16 9 SW 1027,2 20 0 0,0
21.03.2019 02:00:00 7,9 0,1 1,4 12,6 12,5 11 6 21 11 NNW 1027,8 20 0 0,0
21.03.2019 01:00:00 8,3 -0,2 3,5 12,6 12,5 10 6 22 12 WNW 1028,0 20 0 0,0
21.03.2019 00:00:00 9,1 0,0 5,6 12,6 12,5 14 8 22 12 N 1028,0 20 0 0,0
20.03.2019 23:00:00 9,8 -0,1 7,2 12,6 12,5 14 7 30 16 N 1028,1 20 0 0,0
20.03.2019 22:00:00 11,0 0,7 8,8 12,5 12,5 20 11 36 20 NNE 1028,1 20 0 0,0
20.03.2019 21:00:00 11,8 1,1 10,0 12,5 12,5 22 12 38 21 NNE 1027,8 20 0 0,0
20.03.2019 20:00:00 12,5 2,6 10,1 12,5 12,5 23 12 37 20 NNE 1027,1 20 0 0,0
20.03.2019 19:00:00 12,3 2,2 10,5 12,4 12,5 23 12 36 20 NNE 1026,5 20 2 0,0
20.03.2019 18:00:00 13,1 2,3 12,0 12,4 12,5 24 13 41 22 NNE 1026,2 47 60 0,0
20.03.2019 17:00:00 14,0 2,9 14,6 12,3 12,5 26 14 40 22 N 1025,7 35 60 0,0
20.03.2019 16:00:00 14,6 2,8 20,9 12,3 12,5 26 14 39 21 N 1025,7 31 60 0,0
20.03.2019 15:00:00 14,9 3,4 24,1 12,2 12,5 26 14 40 22 N 1025,8 20 60 0,0
20.03.2019 14:00:00 15,1 3,2 23,1 12,2 12,5 24 13 37 20 N 1026,3 30 58 0,0
20.03.2019 13:00:00 14,4 2,9 25,1 12,2 12,4 22 12 41 22 N 1026,7 31 60 0,0
20.03.2019 12:00:00 13,9 3,4 23,1 12,2 12,5 24 13 40 21 N 1026,9 34 60 0,0
20.03.2019 11:00:00 13,4 3,5 19,3 12,3 12,5 24 13 44 24 N 1026,8 20 60 0,0
20.03.2019 10:00:00 12,8 3,4 14,7 12,3 12,5 26 14 41 22 N 1026,7 20 57 0,0
20.03.2019 09:00:00 12,2 3,2 10,5 12,3 12,5 24 13 39 21 NNE 1026,2 53 57 0,0
20.03.2019 08:00:00 11,0 3,0 7,9 12,4 12,5 24 13 37 20 NNE 1025,6 60 60 0,0

tt = temperature
td = dewpoint
tt 5cm = temperature 5cm
tt -20cm = temperature -20cm
tt -100cm = temperature -100cm
ff = wind speed
fx = gusts
dd = wind direction
ppp = reduced air pressure
vv = visibility
sd = sunshine duration
rr = precipitation

Next stations